Hourly Data Report for October 08, 2014

All times are specified in Local Standard Time (LST). Add 1 hour to adjust for Daylight Saving Time where and when it is observed.

PANGNIRTUNG
NUNAVUT

66°08'36.300" N
65°42'40.500" W
22.60 m
2403049
71826
WXP

Download Data

Hourly Data (October 2014)
Hourly Data Report for October 8, 2014
Temp Definition
°C
Dew Point Temp Definition
°C
Rel Hum Definition
%
Wind Dir Definition
10's deg

Wind Spd Definition
km/h
Visibility Definition
km
Stn Press Definition
kPa
Hmdx Definition


Wind Chill Definition


Weather Definition


TIME
00:00 -1.1 -5.8 71 7 7   101.81   -4 LegendNANA
01:00 0.0 -6.3 62 8 8   101.79   -3 LegendNANA
02:00 -0.5 -6.0 66 7 5   101.76   -2 LegendNANA
03:00 -0.2 -6.2 64 13 6   101.71   -2 LegendNANA
04:00 -0.1 -6.7 61 8 5   101.69   -2 LegendNANA
05:00 -0.4 -6.2 65 12 6   101.66   -2 LegendNANA
06:00 -0.3 -6.5 63 18 3   101.64   -1 LegendNANA
07:00 -0.3 -6.1 65 19 7   101.63   -3 LegendNANA
08:00 -0.3 -5.0 71 14 13   101.62   -4 LegendNANA
09:00 0.3 -5.6 65 10 7   101.60     LegendNANA
10:00 0.5 -5.9 62 13 6   101.56     LegendNANA
11:00 0.9 -5.6 62 23 1   101.53     LegendNANA
12:00 0.5 -5.8 63 26 6   101.51     LegendNANA
13:00 0.3 -4.9 68 25 9   101.49     LegendNANA
14:00 0.2 -4.8 69 29 3   101.46     LegendNANA
15:00 0.0 -4.7 70 25 4   101.45   -1 LegendNANA
16:00 -0.5 -4.2 76 23 6   101.45   -3 LegendNANA
17:00 -0.7 -4.3 76 21 4   101.43   -2 LegendNANA
18:00 -0.8 -4.1 78 22 8   101.43   -4 LegendNANA
19:00 -0.8 -4.3 77 24 4   101.39   -2 LegendNANA
20:00 -1.0 -4.6 77 22 3   101.37   -2 LegendNANA
21:00 -1.1 -4.0 81 22 5   101.34   -3 LegendNANA
22:00 -1.0 -3.9 80 23 2   101.31   -2 LegendNANA
23:00 -1.2 -4.5 78 32 3   101.27   -2 LegendNANA

Notes on Data Quality.

Legend

  • E = Estimated
  • M = Missing
  • NA = Not Available
  • ‡ = Partner data that is not subject to review by the National Climate Archives
Date modified: